Tracking 18843 objects as of 20-November-2017
HD Live streaming from Space Station
objects crossing your sky now

STSAT 3

Track STSAT 3 now!
10-day predictions
STSAT 3 is classified as:


NORAD ID: 39422
Int'l Code: 2013-066G
Perigee: 589.3 km
Apogee: 623.7 km
Inclination: 97.6 °
Period: 96.7 minutes
Semi major axis: 6977 km
RCS: 0.4885 m2 (medium)
Launch date: November 21, 2013
Source: South Korea (SKOR)
Launch site: Orenburg, Russia (OREN)
aabbcc
Your satellite tracking list
Your tracking list is empty




NASA's NSSDC Master Catalog

Two Line Element Set (TLE):
1 39422U 13066G   17324.47453289  .00000514  00000-0  59260-4 0  9991
2 39422  97.6395  21.8438 0024684  76.8467 283.5518 14.89535004217190
Source of the keplerian elements: AFSPC